#timestamp,LO_Frequency,Hit 
1502067615.9,286047029.7,N
1502067635.7,286047031.5,N
1502067655.6,286047029.2,N
1502067675.4,286047029.3,N
1502067695.2,286047028.6,N
1502067715.1,286047030.2,N
1502067716.0,286047030.2,N
1502067735.8,286047032.3,N
1502067755.6,286047032.9,N
1502067775.4,286047032.9,N
1502067795.3,286047030.5,N
1502067815.1,286047031.8,N
1502067835.8,286047032.5,N
1502067855.2,286047030.4,N
1502067875.9,286047034.8,N
1502067895.7,286047034.7,N
1502067915.6,286047034.4,N
1502067935.4,286047034.5,N
1502067955.2,286047034.7,N
1502067975.0,286047035.9,N
1502067975.9,286047035.9,N
1502067995.8,286047035.5,N
1502068015.6,286047036.3,N
1502068035.4,286047036.2,N
1502068055.3,286047034.9,N
1502068075.1,286047035.8,N
1502068076.0,286047035.8,N
1502068095.8,286047036.3,N
1502068115.7,286047038.0,N
1502068135.5,286047037.9,N
1502068155.3,286047035.0,N
1502068175.2,286047037.8,N
1502068195.9,286047035.7,N
1502068215.7,286047034.1,N
1502068235.5,286047035.2,N
1502068255.4,286047036.6,N
1502068275.2,286047035.0,N
1502068295.0,286047037.3,N
1502068295.9,286047037.3,N
1502068315.8,286047034.9,N
1502068335.6,286047035.3,N
1502068355.4,286047035.2,N
1502068375.3,286047037.5,N
1502068395.1,286047037.8,N
1502068396.0,286047037.8,N
1502068415.8,286047039.0,N
1502068435.7,286047037.8,N
1502068455.6,286047036.5,N
1502068475.5,286047036.9,N
1502068495.3,286047037.4,N
1502068515.1,286047037.3,N
1502068535.9,286047036.7,N
1502068555.7,286047039.0,N
1502068575.5,286047039.1,N
1502068595.3,286047039.0,N
1502068615.2,286047039.4,N
1502068635.0,286047037.2,N
1502068635.9,286047037.2,N
1502068655.7,286047036.6,N
1502068675.6,286047037.3,N
1502068695.4,286047037.6,N
1502068715.2,286047037.2,N
1502068735.1,286047039.6,N
1502068736.0,286047039.6,N
1502068755.8,286047037.2,N
1502068775.6,286047039.0,N
1502068795.5,286047037.5,N
1502068815.3,286047037.7,N
1502068835.1,286047037.9,N
1502068855.8,286047033.4,N
1502068875.7,286047035.7,N
1502068895.5,286047035.7,N
1502068915.3,286047036.7,N
1502068935.2,286047039.4,N
1502068955.9,286047039.3,N
1502068975.7,286047037.8,N
1502068995.6,286047038.8,N
1502069015.4,286047038.5,N
1502069035.2,286047038.6,N
1502069055.1,286047037.4,N
1502069056.0,286047037.4,N
1502069075.8,286047035.0,N
1502069095.6,286047038.8,N
1502069115.4,286047039.5,N
1502069135.3,286047039.4,N
1502069155.1,286047039.2,N
1502069175.8,286047036.7,N
1502069195.7,286047037.4,N
1502069215.5,286047037.9,N
1502069235.3,286047039.2,N
1502069255.2,286047036.6,N
1502069275.9,286047038.9,N
1502069295.7,286047036.6,N
1502069315.6,286047039.2,N
1502069335.4,286047041.1,N
1502069355.2,286047038.4,N
1502069375.0,286047040.8,N
1502069376.0,286047040.8,N
1502069395.8,286047040.4,N
1502069415.6,286047040.8,N
1502069435.4,286047038.5,N
1502069455.3,286047038.4,N
1502069475.1,286047039.2,N
1502069495.8,286047040.7,N
1502069515.7,286047039.5,N
1502069535.5,286047038.3,N
1502069555.3,286047040.8,N
1502069575.2,286047041.0,N
1502069595.9,286047038.2,N
1502069615.7,286047039.7,N
1502069635.6,286047042.3,N
1502069655.4,286047044.1,N
1502069675.2,286047039.7,N
1502069695.1,286047044.2,N
1502069696.0,286047044.2,N
1502069715.8,286047041.6,N
1502069735.6,286047041.7,N
1502069755.4,286047044.0,N
1502069775.3,286047042.2,N
1502069795.1,286047040.0,N
1502069815.8,286047042.3,N
1502069835.7,286047042.7,N
1502069855.5,286047040.3,N
1502069875.3,286047039.8,N
1502069895.2,286047041.9,N
1502069915.9,286047041.5,N
1502069935.7,286047042.0,N
1502069955.6,286047041.3,N
1502069975.4,286047045.6,N
1502069995.2,286047044.2,N
1502070015.1,286047042.6,N
1502070016.0,286047042.6,N
1502070035.8,286047040.2,N
1502070055.6,286047043.4,N
1502070075.4,286047045.7,N
1502070095.3,286047047.2,N
1502070115.1,286047045.4,N
1502070135.8,286047043.7,N
1502070155.7,286047041.3,N
1502070175.5,286047040.7,N
1502070195.3,286047039.7,N
1502070215.2,286047040.3,N
1502070235.9,286047042.3,N
1502070255.7,286047042.8,N
1502070275.6,286047042.7,N
1502070295.4,286047041.9,N
1502070315.2,286047043.1,N
1502070335.1,286047045.2,N
1502070336.0,286047045.2,N
1502070355.8,286047045.1,N
1502070375.6,286047047.4,N
1502070395.4,286047044.5,N
1502070415.3,286047045.2,N
1502070435.1,286047045.5,N
1502070455.8,286047045.1,N
1502070475.7,286047046.8,N
1502070495.5,286047044.7,N
1502070515.3,286047045.2,N
1502070535.2,286047045.5,N
1502070555.9,286047044.6,N
1502070575.7,286047041.8,N
1502070595.6,286047042.6,N
1502070615.4,286047038.6,N
1502070635.5,286047043.8,N
1502070655.3,286047045.0,N
1502070675.2,286047046.1,N
1502070695.9,286047046.3,N
1502070715.7,286047045.9,N
1502070735.5,286047045.9,N
1502070755.4,286047041.3,N
1502070775.2,286047046.0,N
1502070795.0,286047046.1,N
1502070795.9,286047046.1,N
1502070815.8,286047047.7,N
1502070835.6,286047050.3,Y
1502070855.4,286047022.1,N
1502070875.3,286047022.3,N
1502070895.1,286047018.9,N
1502070915.8,286047022.9,N
1502070935.7,286047020.5,N
1502070955.5,286047023.2,N
1502070975.3,286047022.1,N
1502070995.2,286047026.6,N
1502071015.9,286047025.9,N
1502071035.7,286047025.0,N
1502071055.6,286047026.8,N
1502071075.4,286047023.3,N
1502071095.2,286047023.2,N
1502071115.0,286047020.6,N
1502071115.9,286047020.6,N
1502071135.8,286047022.2,N
1502071155.6,286047023.8,N
1502071175.4,286047024.9,N
1502071195.3,286047021.0,N
